| time (UTC) | temp F | wind direction | speed MPH | gust MPH | rain 1hr in | rain 24hr in | rain mn in | humidity % | barometer mb |
| 20260507025040 | 60 | 174 | 2.0 | 7.0 | 0.00 | 0.00 | 0.00 | 84 | 1016.5 |
| 20260507024553 | 60 | 211 | 2.0 | 8.0 | 0.00 | 0.00 | 0.00 | 83 | 1016.5 |
| 20260507024040 | 61 | 217 | 3.0 | 8.0 | 0.00 | 0.00 | 0.00 | 82 | 1016.4 |
| 20260507023540 | 61 | 215 | 5.0 | 7.0 | 0.00 | 0.00 | 0.00 | 81 | 1016.4 |
| 20260507023103 | 61 | 165 | 4.0 | 7.0 | 0.00 | 0.00 | 0.00 | 79 | 1016.3 |
| 20260507022540 | 62 | 205 | 3.0 | 8.0 | 0.00 | 0.00 | 0.00 | 78 | 1016.3 |
| 20260507022040 | 62 | 217 | 4.0 | 8.0 | 0.00 | 0.00 | 0.00 | 78 | 1016.3 |
| 20260507021550 | 62 | 186 | 3.0 | 7.0 | 0.00 | 0.00 | 0.00 | 78 | 1016.3 |
| 20260507021040 | 62 | 172 | 3.0 | 7.0 | 0.00 | 0.00 | 0.00 | 78 | 1016.2 |
| 20260507020540 | 62 | 203 | 4.0 | 8.0 | 0.00 | 0.00 | 0.00 | 79 | 1016.2 |
| 20260507020057 | 62 | 232 | 4.0 | 8.0 | 0.00 | 0.00 | 0.00 | 79 | 1016.2 |
| 20260507015539 | 62 | 201 | 3.0 | 10.0 | 0.00 | 0.00 | 0.00 | 79 | 1016.2 |
| 20260507015040 | 62 | 182 | 6.0 | 10.0 | 0.00 | 0.00 | 0.00 | 79 | 1016.2 |
| 20260507014553 | 62 | 200 | 5.0 | 12.0 | 0.00 | 0.00 | 0.00 | 79 | 1016.2 |
| 20260507014040 | 63 | 177 | 6.0 | 12.0 | 0.00 | 0.00 | 0.00 | 78 | 1016.1 |
| 20260507013541 | 63 | 189 | 5.0 | 10.0 | 0.00 | 0.00 | 0.00 | 77 | 1016.1 |
| 20260507013045 | 63 | 197 | 6.0 | 10.0 | 0.00 | 0.00 | 0.00 | 76 | 1016.1 |
| 20260507012546 | 64 | 181 | 6.0 | 10.0 | 0.00 | 0.00 | 0.00 | 74 | 1016.2 |
| 20260507012040 | 64 | 195 | 5.0 | 9.0 | 0.00 | 0.00 | 0.00 | 73 | 1016.1 |
| 20260507011550 | 65 | 180 | 5.0 | 10.0 | 0.00 | 0.00 | 0.00 | 73 | 1016.1 |
| 20260507011039 | 65 | 191 | 4.0 | 10.0 | 0.00 | 0.00 | 0.00 | 72 | 1016.1 |
| 20260507010540 | 65 | 230 | 5.0 | 10.0 | 0.00 | 0.00 | 0.00 | 71 | 1016.1 |
| 20260507010050 | 65 | 225 | 5.0 | 11.0 | 0.00 | 0.00 | 0.00 | 72 | 1016.3 |
| 20260507005540 | 65 | 207 | 6.0 | 11.0 | 0.00 | 0.00 | 0.00 | 71 | 1016.2 |
| 20260507005040 | 65 | 189 | 5.0 | 14.0 | 0.00 | 0.00 | 0.00 | 70 | 1016.2 |
| 20260507004551 | 65 | 236 | 5.0 | 14.0 | 0.00 | 0.00 | 0.00 | 71 | 1016.3 |
| 20260507004039 | 64 | 183 | 6.0 | 14.0 | 0.00 | 0.00 | 0.00 | 70 | 1016.3 |
| 20260507003541 | 65 | 177 | 6.0 | 14.0 | 0.00 | 0.00 | 0.00 | 71 | 1016.3 |
| 20260507003103 | 64 | 276 | 7.0 | 16.0 | 0.00 | 0.00 | 0.00 | 71 | 1016.2 |
| 20260507002545 | 64 | 243 | 7.0 | 16.0 | 0.00 | 0.00 | 0.00 | 70 | 1016.3 |
| 20260507002042 | 64 | 248 | 8.0 | 16.0 | 0.00 | 0.00 | 0.00 | 68 | 1016.3 |
| 20260507001611 | 65 | 242 | 8.0 | 15.0 | 0.00 | 0.00 | 0.00 | 68 | 1016.4 |
| 20260507001041 | 65 | 245 | 9.0 | 15.0 | 0.00 | 0.00 | 0.00 | 67 | 1016.3 |
| 20260507000543 | 65 | 202 | 9.0 | 17.0 | 0.00 | 0.00 | 0.00 | 67 | 1016.3 |
| 20260507000052 | 65 | 206 | 8.0 | 17.0 | 0.00 | 0.00 | 0.00 | 67 | 1016.3 |
| 20260506235540 | 65 | 216 | 7.0 | 14.0 | 0.00 | 0.00 | 0.00 | 68 | 1016.3 |
| 20260506235040 | 65 | 210 | 8.0 | 15.0 | 0.00 | 0.00 | 0.00 | 67 | 1016.4 |
| 20260506234554 | 65 | 241 | 9.0 | 19.0 | 0.00 | 0.00 | 0.00 | 67 | 1016.2 |
| 20260506234040 | 65 | 227 | 10.0 | 19.0 | 0.00 | 0.00 | 0.00 | 67 | 1016.3 |
| 20260506233540 | 66 | 244 | 8.0 | 16.0 | 0.00 | 0.00 | 0.00 | 65 | 1016.3 |
| 20260506233050 | 66 | 258 | 6.0 | 17.0 | 0.00 | 0.00 | 0.00 | 66 | 1016.2 |
| 20260506232539 | 65 | 223 | 8.0 | 17.0 | 0.00 | 0.00 | 0.00 | 69 | 1016.3 |
| 20260506232040 | 65 | 257 | 8.0 | 17.0 | 0.00 | 0.00 | 0.00 | 68 | 1016.3 |
| 20260506231554 | 65 | 221 | 9.0 | 16.0 | 0.00 | 0.00 | 0.00 | 69 | 1016.4 |
| 20260506231040 | 64 | 254 | 11.0 | 17.0 | 0.00 | 0.00 | 0.00 | 69 | 1016.4 |
| 20260506230540 | 65 | 209 | 8.0 | 19.0 | 0.00 | 0.00 | 0.00 | 69 | 1016.4 |
| 20260506230058 | 66 | 254 | 8.0 | 19.0 | 0.00 | 0.00 | 0.00 | 68 | 1016.4 |
| 20260506225540 | 66 | 209 | 8.0 | 19.0 | 0.00 | 0.00 | 0.00 | 68 | 1016.5 |
| 20260506225040 | 66 | 225 | 6.0 | 14.0 | 0.00 | 0.00 | 0.00 | 69 | 1016.6 |
| 20260506224548 | 65 | 183 | 7.0 | 14.0 | 0.00 | 0.00 | 0.00 | 70 | 1016.7 |
| 20260506224039 | 65 | 180 | 8.0 | 14.0 | 0.00 | 0.00 | 0.00 | 71 | 1016.8 |
| 20260506223541 | 65 | 230 | 8.0 | 18.0 | 0.00 | 0.00 | 0.00 | 71 | 1016.8 |
| 20260506223055 | 65 | 188 | 9.0 | 18.0 | 0.00 | 0.00 | 0.00 | 70 | 1016.9 |
| 20260506222540 | 65 | 232 | 7.0 | 14.0 | 0.00 | 0.00 | 0.00 | 68 | 1017.2 |
| 20260506222040 | 65 | 209 | 6.0 | 14.0 | 0.00 | 0.00 | 0.00 | 71 | 1017.2 |
| 20260506221605 | 65 | 184 | 7.0 | 14.0 | 0.00 | 0.00 | 0.00 | 70 | 1017.3 |
| 20260506221039 | 66 | 222 | 8.0 | 14.0 | 0.00 | 0.00 | 0.00 | 72 | 1017.3 |
| 20260506220539 | 65 | 288 | 9.0 | 14.0 | 0.00 | 0.00 | 0.00 | 69 | 1017.3 |
| 20260506220051 | 66 | 257 | 7.0 | 15.0 | 0.00 | 0.00 | 0.00 | 70 | 1017.4 |
| 20260506215542 | 65 | 240 | 8.0 | 15.0 | 0.00 | 0.00 | 0.00 | 69 | 1017.5 |
| 20260506215040 | 66 | 226 | 6.0 | 16.0 | 0.00 | 0.00 | 0.00 | 71 | 1017.6 |
| 20260506214555 | 65 | 219 | 8.0 | 16.0 | 0.00 | 0.00 | 0.00 | 71 | 1017.6 |
| 20260506214040 | 65 | 196 | 8.0 | 15.0 | 0.00 | 0.00 | 0.00 | 71 | 1017.7 |
| 20260506213540 | 65 | 252 | 9.0 | 15.0 | 0.00 | 0.00 | 0.00 | 72 | 1017.8 |
| 20260506213103 | 65 | 211 | 8.0 | 16.0 | 0.00 | 0.00 | 0.00 | 72 | 1017.8 |
| 20260506212540 | 65 | 190 | 8.0 | 16.0 | 0.00 | 0.00 | 0.00 | 70 | 1017.8 |
| 20260506212040 | 65 | 212 | 8.0 | 16.0 | 0.00 | 0.00 | 0.00 | 70 | 1017.8 |
| 20260506211548 | 65 | 230 | 7.0 | 16.0 | 0.00 | 0.00 | 0.00 | 70 | 1017.8 |
| 20260506211039 | 66 | 202 | 6.0 | 15.0 | 0.00 | 0.00 | 0.00 | 68 | 1017.9 |
| 20260506210540 | 65 | 194 | 6.0 | 15.0 | 0.00 | 0.00 | 0.00 | 69 | 1018.0 |
| 20260506210056 | 66 | 218 | 6.0 | 13.0 | 0.00 | 0.00 | 0.00 | 68 | 1018.0 |
| 20260506205541 | 66 | 240 | 7.0 | 14.0 | 0.00 | 0.00 | 0.00 | 66 | 1018.1 |
| 20260506205039 | 66 | 259 | 8.0 | 14.0 | 0.00 | 0.00 | 0.00 | 66 | 1018.1 |
| 20260506204547 | 66 | 219 | 6.0 | 11.0 | 0.00 | 0.00 | 0.00 | 65 | 1018.1 |
| 20260506204038 | 67 | 236 | 4.0 | 12.0 | 0.00 | 0.00 | 0.00 | 67 | 1018.0 |
| 20260506203540 | 66 | 211 | 5.0 | 13.0 | 0.00 | 0.00 | 0.00 | 67 | 1018.0 |
| 20260506203049 | 66 | 269 | 6.0 | 13.0 | 0.00 | 0.00 | 0.00 | 68 | 1018.1 |
| 20260506202541 | 66 | 201 | 6.0 | 15.0 | 0.00 | 0.00 | 0.00 | 70 | 1018.1 |
| 20260506202040 | 65 | 176 | 6.0 | 15.0 | 0.00 | 0.00 | 0.00 | 70 | 1018.2 |
| 20260506201549 | 65 | 186 | 7.0 | 12.0 | 0.00 | 0.00 | 0.00 | 69 | 1018.2 |
| 20260506201040 | 65 | 157 | 6.0 | 14.0 | 0.00 | 0.00 | 0.00 | 70 | 1018.3 |
| 20260506200548 | 65 | 217 | 7.0 | 14.0 | 0.00 | 0.00 | 0.00 | 68 | 1018.3 |
| 20260506200056 | 66 | 214 | 5.0 | 12.0 | 0.00 | 0.00 | 0.00 | 69 | 1018.3 |
| 20260506195541 | 66 | 232 | 5.0 | 12.0 | 0.00 | 0.00 | 0.00 | 69 | 1018.4 |
| 20260506195041 | 66 | 169 | 5.0 | 14.0 | 0.00 | 0.00 | 0.00 | 70 | 1018.3 |
| 20260506194554 | 65 | 222 | 4.0 | 14.0 | 0.00 | 0.00 | 0.00 | 72 | 1018.3 |
| 20260506194040 | 65 | 193 | 7.0 | 14.0 | 0.00 | 0.00 | 0.00 | 72 | 1018.4 |
| 20260506193543 | 65 | 209 | 6.0 | 13.0 | 0.00 | 0.00 | 0.00 | 71 | 1018.4 |
| 20260506193101 | 65 | 209 | 8.0 | 13.0 | 0.00 | 0.00 | 0.00 | 72 | 1018.5 |
| 20260506192540 | 65 | 202 | 6.0 | 14.0 | 0.00 | 0.00 | 0.00 | 72 | 1018.5 |
| 20260506192040 | 65 | 188 | 7.0 | 14.0 | 0.00 | 0.00 | 0.00 | 73 | 1018.5 |
| 20260506191555 | 64 | 218 | 6.0 | 14.0 | 0.00 | 0.00 | 0.00 | 73 | 1018.5 |
| 20260506191042 | 65 | 163 | 9.0 | 13.0 | 0.00 | 0.00 | 0.00 | 72 | 1018.5 |
| 20260506190538 | 65 | 213 | 5.0 | 13.0 | 0.00 | 0.00 | 0.00 | 73 | 1018.4 |
| 20260506190054 | 65 | 214 | 6.0 | 11.0 | 0.00 | 0.00 | 0.00 | 71 | 1018.5 |
| 20260506185537 | 65 | 213 | 4.0 | 11.0 | 0.00 | 0.00 | 0.00 | 72 | 1018.5 |
| 20260506185040 | 65 | 211 | 5.0 | 12.0 | 0.00 | 0.00 | 0.00 | 72 | 1018.6 |
| 20260506184557 | 64 | 208 | 5.0 | 13.0 | 0.00 | 0.00 | 0.00 | 74 | 1018.5 |
| 20260506184043 | 64 | 146 | 7.0 | 13.0 | 0.00 | 0.00 | 0.00 | 74 | 1018.6 |
| 20260506183544 | 63 | 216 | 8.0 | 15.0 | 0.00 | 0.00 | 0.00 | 74 | 1018.6 |
| 20260506183053 | 64 | 190 | 8.0 | 15.0 | 0.00 | 0.00 | 0.00 | 75 | 1018.7 |
| 20260506182541 | 64 | 205 | 7.0 | 14.0 | 0.00 | 0.00 | 0.00 | 74 | 1018.6 |
| 20260506182042 | 64 | 218 | 6.0 | 13.0 | 0.00 | 0.00 | 0.00 | 75 | 1018.6 |
| 20260506181555 | 64 | 194 | 8.0 | 13.0 | 0.00 | 0.00 | 0.00 | 75 | 1018.7 |
| 20260506181040 | 64 | 215 | 5.0 | 13.0 | 0.00 | 0.00 | 0.00 | 74 | 1018.7 |
| 20260506180543 | 65 | 205 | 7.0 | 12.0 | 0.00 | 0.00 | 0.00 | 74 | 1018.7 |
| 20260506180053 | 65 | 219 | 5.0 | 13.0 | 0.00 | 0.00 | 0.00 | 74 | 1018.6 |
| 20260506175540 | 64 | 178 | 7.0 | 13.0 | 0.00 | 0.00 | 0.00 | 73 | 1018.7 |
| 20260506175040 | 65 | 167 | 5.0 | 10.0 | 0.00 | 0.00 | 0.00 | 72 | 1018.7 |
| 20260506174556 | 65 | 228 | 4.0 | 9.0 | 0.00 | 0.00 | 0.00 | 72 | 1018.6 |
| 20260506174040 | 64 | 232 | 4.0 | 10.0 | 0.00 | 0.00 | 0.00 | 71 | 1018.6 |
| 20260506173540 | 64 | 238 | 5.0 | 10.0 | 0.00 | 0.00 | 0.00 | 72 | 1018.7 |
| 20260506173059 | 64 | 190 | 5.0 | 10.0 | 0.00 | 0.00 | 0.00 | 72 | 1018.7 |
| 20260506172541 | 64 | 207 | 3.0 | 11.0 | 0.00 | 0.00 | 0.00 | 72 | 1018.6 |
| 20260506172041 | 64 | 215 | 6.0 | 11.0 | 0.00 | 0.00 | 0.00 | 71 | 1018.7 |
| 20260506171551 | 64 | 254 | 4.0 | 9.0 | 0.00 | 0.00 | 0.00 | 71 | 1018.6 |
| 20260506171040 | 64 | 256 | 2.0 | 11.0 | 0.00 | 0.00 | 0.00 | 71 | 1018.5 |
| 20260506170541 | 63 | 183 | 4.0 | 11.0 | 0.00 | 0.00 | 0.00 | 72 | 1018.5 |
| 20260506170054 | 63 | 176 | 5.0 | 9.0 | 0.00 | 0.00 | 0.00 | 72 | 1018.6 |
| 20260506165543 | 63 | 215 | 2.0 | 10.0 | 0.00 | 0.00 | 0.00 | 73 | 1018.6 |
| 20260506165040 | 63 | 170 | 3.0 | 10.0 | 0.00 | 0.00 | 0.00 | 74 | 1018.6 |
| 20260506164611 | 63 | 181 | 4.0 | 9.0 | 0.00 | 0.00 | 0.00 | 73 | 1018.7 |
| 20260506164039 | 63 | 228 | 4.0 | 9.0 | 0.00 | 0.00 | 0.00 | 74 | 1018.6 |
| 20260506163540 | 62 | 171 | 3.0 | 8.0 | 0.00 | 0.00 | 0.00 | 74 | 1018.7 |
| 20260506163056 | 62 | 195 | 2.0 | 7.0 | 0.00 | 0.00 | 0.00 | 73 | 1018.7 |
| 20260506162543 | 62 | 173 | 4.0 | 7.0 | 0.00 | 0.00 | 0.00 | 73 | 1018.7 |
| 20260506162042 | 62 | 172 | 3.0 | 6.0 | 0.00 | 0.00 | 0.00 | 73 | 1018.6 |
| 20260506161553 | 62 | 219 | 2.0 | 6.0 | 0.00 | 0.00 | 0.00 | 73 | 1018.7 |
| 20260506161040 | 62 | 0 | 2.0 | 5.0 | 0.00 | 0.00 | 0.00 | 73 | 1018.7 |
| 20260506160542 | 62 | 193 | 3.0 | 5.0 | 0.00 | 0.00 | 0.00 | 72 | 1018.7 |
| 20260506155540 | 61 | 0 | 1.0 | 6.0 | 0.00 | 0.00 | 0.00 | 73 | 1018.6 |
| 20260506155040 | 61 | 84 | 0.0 | 4.0 | 0.00 | 0.00 | 0.00 | 73 | 1018.6 |
| 20260506154554 | 60 | 5 | 1.0 | 5.0 | 0.00 | 0.00 | 0.00 | 73 | 1018.6 |
| 20260506154040 | 60 | 42 | 2.0 | 7.0 | 0.00 | 0.00 | 0.00 | 74 | 1018.6 |
| 20260506153544 | 59 | 360 | 3.0 | 7.0 | 0.00 | 0.00 | 0.00 | 74 | 1018.5 |
| 20260506153050 | 59 | 13 | 4.0 | 7.0 | 0.00 | 0.00 | 0.00 | 75 | 1018.6 |
| 20260506152540 | 59 | 48 | 3.0 | 9.0 | 0.00 | 0.00 | 0.00 | 76 | 1018.6 |
| 20260506152043 | 58 | 15 | 2.0 | 9.0 | 0.00 | 0.00 | 0.00 | 77 | 1018.7 |
| 20260506151554 | 58 | 49 | 5.0 | 9.0 | 0.00 | 0.00 | 0.00 | 77 | 1018.7 |
| 20260506151048 | 57 | 5 | 4.0 | 10.0 | 0.00 | 0.00 | 0.00 | 78 | 1018.6 |
| 20260506150539 | 57 | 349 | 5.0 | 10.0 | 0.00 | 0.00 | 0.00 | 78 | 1018.7 |
| 20260506150103 | 57 | 355 | 3.0 | 10.0 | 0.00 | 0.00 | 0.00 | 79 | 1018.6 |
| 20260506145542 | 57 | 24 | 6.0 | 10.0 | 0.00 | 0.00 | 0.00 | 78 | 1018.6 |
| 20260506145040 | 56 | 30 | 3.0 | 10.0 | 0.00 | 0.00 | 0.00 | 80 | 1018.6 |
| 20260506144552 | 56 | 30 | 6.0 | 10.0 | 0.00 | 0.00 | 0.00 | 79 | 1018.7 |
| 20260506144040 | 56 | 36 | 4.0 | 10.0 | 0.00 | 0.00 | 0.00 | 80 | 1018.6 |
| 20260506143540 | 56 | 9 | 4.0 | 10.0 | 0.00 | 0.00 | 0.00 | 81 | 1018.5 |
| 20260506143100 | 55 | 40 | 4.0 | 10.0 | 0.00 | 0.00 | 0.00 | 82 | 1018.4 |
| 20260506142540 | 55 | 11 | 3.0 | 10.0 | 0.00 | 0.00 | 0.00 | 83 | 1018.5 |
| 20260506142039 | 54 | 9 | 5.0 | 9.0 | 0.00 | 0.00 | 0.00 | 84 | 1018.4 |
| 20260506141555 | 54 | 9 | 4.0 | 8.0 | 0.00 | 0.00 | 0.00 | 84 | 1018.4 |
| 20260506141040 | 53 | 29 | 3.0 | 8.0 | 0.00 | 0.00 | 0.00 | 85 | 1018.4 |
| 20260506140540 | 53 | 28 | 4.0 | 7.0 | 0.00 | 0.00 | 0.00 | 85 | 1018.4 |
| 20260506140051 | 52 | 12 | 3.0 | 6.0 | 0.00 | 0.00 | 0.00 | 86 | 1018.3 |
| 20260506135540 | 52 | 5 | 3.0 | 6.0 | 0.00 | 0.00 | 0.00 | 86 | 1018.4 |
| 20260506135039 | 52 | 40 | 3.0 | 6.0 | 0.00 | 0.00 | 0.00 | 86 | 1018.4 |
| 20260506134554 | 52 | 18 | 2.0 | 5.0 | 0.00 | 0.00 | 0.00 | 86 | 1018.3 |
| 20260506134042 | 52 | 42 | 2.0 | 5.0 | 0.00 | 0.00 | 0.00 | 86 | 1018.3 |
| 20260506133540 | 52 | 28 | 2.0 | 5.0 | 0.00 | 0.00 | 0.00 | 85 | 1018.3 |
| 20260506133107 | 52 | 61 | 2.0 | 5.0 | 0.00 | 0.00 | 0.00 | 85 | 1018.3 |
| 20260506132540 | 52 | 49 | 2.0 | 4.0 | 0.00 | 0.00 | 0.00 | 84 | 1018.3 |
| 20260506132043 | 53 | 59 | 2.0 | 5.0 | 0.00 | 0.00 | 0.00 | 84 | 1018.2 |
| 20260506131605 | 53 | 42 | 2.0 | 7.0 | 0.00 | 0.00 | 0.00 | 85 | 1018.2 |
| 20260506131042 | 53 | 19 | 3.0 | 7.0 | 0.00 | 0.00 | 0.00 | 85 | 1018.1 |
| 20260506130540 | 53 | 360 | 3.0 | 6.0 | 0.00 | 0.00 | 0.00 | 85 | 1018.1 |
| 20260506130044 | 53 | 341 | 1.0 | 5.0 | 0.00 | 0.00 | 0.00 | 86 | 1018.0 |
| 20260506125539 | 53 | 36 | 2.0 | 6.0 | 0.00 | 0.00 | 0.00 | 86 | 1018.0 |
| 20260506125039 | 53 | 30 | 3.0 | 7.0 | 0.00 | 0.00 | 0.00 | 86 | 1018.0 |
| 20260506124550 | 53 | 5 | 3.0 | 7.0 | 0.00 | 0.00 | 0.00 | 86 | 1017.9 |
| 20260506124039 | 53 | 20 | 2.0 | 4.0 | 0.00 | 0.00 | 0.00 | 86 | 1017.9 |
| 20260506123543 | 53 | 18 | 2.0 | 5.0 | 0.00 | 0.00 | 0.00 | 86 | 1017.9 |
| 20260506123050 | 53 | 360 | 3.0 | 6.0 | 0.00 | 0.00 | 0.00 | 86 | 1017.9 |
| 20260506122540 | 53 | 5 | 3.0 | 6.0 | 0.00 | 0.00 | 0.00 | 87 | 1017.7 |
| 20260506122041 | 53 | 352 | 3.0 | 6.0 | 0.00 | 0.00 | 0.00 | 87 | 1017.7 |
| 20260506121554 | 53 | 5 | 3.0 | 6.0 | 0.00 | 0.00 | 0.00 | 88 | 1017.6 |
| 20260506121040 | 52 | 360 | 2.0 | 5.0 | 0.00 | 0.00 | 0.00 | 87 | 1017.5 |
| 20260506120540 | 52 | 344 | 2.0 | 5.0 | 0.00 | 0.00 | 0.00 | 87 | 1017.6 |
| 20260506120100 | 53 | 343 | 1.0 | 5.0 | 0.00 | 0.00 | 0.00 | 87 | 1017.5 |
| 20260506115539 | 53 | 350 | 2.0 | 5.0 | 0.00 | 0.00 | 0.00 | 87 | 1017.6 |
| 20260506115040 | 53 | 360 | 3.0 | 5.0 | 0.00 | 0.00 | 0.00 | 87 | 1017.5 |
| 20260506114551 | 53 | 14 | 3.0 | 5.0 | 0.00 | 0.00 | 0.00 | 87 | 1017.6 |
| 20260506114044 | 53 | 12 | 3.0 | 7.0 | 0.00 | 0.00 | 0.00 | 87 | 1017.6 |
| 20260506113540 | 53 | 13 | 3.0 | 7.0 | 0.00 | 0.00 | 0.00 | 87 | 1017.5 |
| 20260506113051 | 53 | 10 | 4.0 | 7.0 | 0.00 | 0.00 | 0.00 | 87 | 1017.6 |
| 20260506112545 | 53 | 9 | 3.0 | 7.0 | 0.00 | 0.00 | 0.00 | 87 | 1017.6 |
| 20260506112040 | 53 | 351 | 3.0 | 7.0 | 0.00 | 0.00 | 0.00 | 87 | 1017.4 |
| 20260506111550 | 53 | 13 | 3.0 | 7.0 | 0.00 | 0.00 | 0.00 | 88 | 1017.4 |
| 20260506111040 | 53 | 19 | 3.0 | 6.0 | 0.00 | 0.00 | 0.00 | 88 | 1017.5 |
| 20260506110540 | 53 | 5 | 3.0 | 7.0 | 0.00 | 0.00 | 0.00 | 88 | 1017.6 |
| 20260506110058 | 53 | 16 | 3.0 | 7.0 | 0.00 | 0.00 | 0.00 | 88 | 1017.5 |
| 20260506105540 | 53 | 11 | 3.0 | 6.0 | 0.00 | 0.00 | 0.00 | 88 | 1017.6 |
| 20260506105042 | 53 | 355 | 2.0 | 4.0 | 0.00 | 0.00 | 0.00 | 88 | 1017.5 |
| 20260506104603 | 53 | 360 | 2.0 | 5.0 | 0.00 | 0.00 | 0.00 | 87 | 1017.5 |
| 20260506104040 | 53 | 360 | 2.0 | 5.0 | 0.00 | 0.00 | 0.00 | 88 | 1017.5 |
| 20260506103540 | 53 | 12 | 2.0 | 8.0 | 0.00 | 0.00 | 0.00 | 88 | 1017.4 |
| 20260506103050 | 53 | 43 | 3.0 | 8.0 | 0.00 | 0.00 | 0.00 | 88 | 1017.4 |
| 20260506102542 | 53 | 351 | 4.0 | 9.0 | 0.00 | 0.00 | 0.00 | 88 | 1017.3 |
| 20260506102042 | 53 | 9 | 5.0 | 9.0 | 0.00 | 0.00 | 0.00 | 89 | 1017.3 |
| 20260506101549 | 53 | 23 | 3.0 | 8.0 | 0.00 | 0.00 | 0.00 | 89 | 1017.4 |
| 20260506101041 | 53 | 35 | 4.0 | 8.0 | 0.00 | 0.00 | 0.00 | 89 | 1017.4 |
| 20260506100540 | 52 | 5 | 2.0 | 8.0 | 0.00 | 0.00 | 0.00 | 88 | 1017.4 |
| 20260506100058 | 53 | 49 | 2.0 | 9.0 | 0.00 | 0.00 | 0.00 | 88 | 1017.4 |
| 20260506095539 | 53 | 18 | 4.0 | 9.0 | 0.00 | 0.00 | 0.00 | 88 | 1017.4 |
| 20260506095041 | 53 | 22 | 3.0 | 7.0 | 0.00 | 0.00 | 0.00 | 87 | 1017.4 |
| 20260506094550 | 53 | 23 | 2.0 | 6.0 | 0.00 | 0.00 | 0.00 | 87 | 1017.4 |
| 20260506094040 | 54 | 54 | 2.0 | 5.0 | 0.00 | 0.00 | 0.00 | 87 | 1017.4 |
| 20260506093540 | 54 | 28 | 3.0 | 5.0 | 0.00 | 0.00 | 0.00 | 88 | 1017.6 |
| 20260506093051 | 54 | 5 | 2.0 | 6.0 | 0.00 | 0.00 | 0.00 | 88 | 1017.5 |
| 20260506092540 | 54 | 38 | 3.0 | 6.0 | 0.00 | 0.00 | 0.00 | 88 | 1017.7 |
| 20260506092040 | 54 | 335 | 2.0 | 5.0 | 0.00 | 0.00 | 0.00 | 88 | 1017.7 |
| 20260506091549 | 54 | 360 | 3.0 | 5.0 | 0.00 | 0.00 | 0.00 | 88 | 1017.7 |
| 20260506091040 | 54 | 12 | 1.0 | 4.0 | 0.00 | 0.00 | 0.00 | 88 | 1017.6 |
| 20260506090540 | 54 | 15 | 1.0 | 3.0 | 0.00 | 0.00 | 0.00 | 88 | 1017.7 |
| 20260506090048 | 54 | 24 | 0.0 | 3.0 | 0.00 | 0.00 | 0.00 | 88 | 1017.7 |
| 20260506085539 | 54 | 24 | 1.0 | 3.0 | 0.00 | 0.00 | 0.00 | 88 | 1017.7 |
| 20260506085039 | 54 | 24 | 0.0 | 4.0 | 0.00 | 0.00 | 0.00 | 88 | 1017.7 |
| 20260506084615 | 54 | 24 | 2.0 | 4.0 | 0.00 | 0.00 | 0.00 | 88 | 1017.9 |
| 20260506084039 | 54 | 355 | 2.0 | 4.0 | 0.00 | 0.00 | 0.00 | 88 | 1017.9 |
| 20260506083538 | 54 | 18 | 1.0 | 4.0 | 0.00 | 0.00 | 0.00 | 88 | 1017.8 |
| 20260506083049 | 54 | 18 | 1.0 | 3.0 | 0.00 | 0.00 | 0.00 | 88 | 1017.9 |
| 20260506082541 | 54 | 30 | 1.0 | 5.0 | 0.00 | 0.00 | 0.00 | 88 | 1017.8 |
| 20260506082039 | 54 | 31 | 1.0 | 7.0 | 0.00 | 0.00 | 0.00 | 88 | 1017.8 |
| 20260506081556 | 54 | 28 | 3.0 | 7.0 | 0.00 | 0.00 | 0.00 | 88 | 1017.8 |
| 20260506081040 | 54 | 360 | 1.0 | 5.0 | 0.00 | 0.00 | 0.00 | 88 | 1017.9 |
| 20260506080540 | 54 | 31 | 2.0 | 6.0 | 0.00 | 0.00 | 0.00 | 88 | 1018.0 |
| 20260506073047 | 54 | 32 | 1.0 | 5.0 | 0.00 | 0.00 | 0.00 | 88 | 1017.8 |
| 20260506072539 | 54 | 39 | 2.0 | 5.0 | 0.00 | 0.00 | 0.00 | 88 | 1017.8 |
| 20260506072039 | 54 | 5 | 2.0 | 4.0 | 0.00 | 0.00 | 0.00 | 88 | 1017.8 |
| 20260506071545 | 54 | 41 | 1.0 | 5.0 | 0.00 | 0.00 | 0.00 | 88 | 1017.8 |
| 20260506071039 | 54 | 41 | 1.0 | 5.0 | 0.00 | 0.00 | 0.00 | 88 | 1017.7 |
| 20260506070540 | 54 | 9 | 2.0 | 5.0 | 0.00 | 0.00 | 0.00 | 88 | 1017.7 |
| 20260506062039 | 55 | 9 | 3.0 | 5.0 | 0.00 | 0.00 | 0.00 | 87 | 1017.2 |
| 20260506061554 | 55 | 17 | 2.0 | 4.0 | 0.00 | 0.00 | 0.00 | 87 | 1017.1 |
| 20260506061039 | 55 | 19 | 1.0 | 4.0 | 0.00 | 0.00 | 0.00 | 87 | 1017.1 |
| 20260506060540 | 55 | 20 | 2.0 | 4.0 | 0.00 | 0.00 | 0.00 | 87 | 1017.1 |
| 20260506051039 | 56 | 51 | 2.0 | 4.0 | 0.00 | 0.00 | 0.00 | 86 | 1016.8 |
| 20260506050539 | 57 | 28 | 2.0 | 4.0 | 0.00 | 0.00 | 0.00 | 87 | 1016.6 |
| 20260506045042 | 57 | 54 | 1.0 | 5.0 | 0.00 | 0.00 | 0.00 | 86 | 1016.5 |
| 20260506044546 | 57 | 360 | 1.0 | 5.0 | 0.00 | 0.00 | 0.00 | 86 | 1016.5 |
| 20260506044045 | 57 | 69 | 2.0 | 5.0 | 0.00 | 0.00 | 0.00 | 86 | 1016.4 |
| 20260506043540 | 57 | 71 | 1.0 | 5.0 | 0.00 | 0.00 | 0.00 | 86 | 1016.5 |
| 20260506043049 | 57 | 86 | 2.0 | 5.0 | 0.00 | 0.00 | 0.00 | 86 | 1016.4 |
| 20260506042540 | 57 | 78 | 2.0 | 7.0 | 0.00 | 0.00 | 0.00 | 86 | 1016.3 |
| 20260506042040 | 57 | 80 | 3.0 | 8.0 | 0.00 | 0.00 | 0.00 | 86 | 1016.2 |
| 20260506041602 | 57 | 92 | 3.0 | 8.0 | 0.00 | 0.00 | 0.00 | 85 | 1016.2 |
| 20260506041039 | 57 | 74 | 3.0 | 7.0 | 0.00 | 0.00 | 0.00 | 85 | 1016.2 |
| 20260506040539 | 58 | 60 | 2.0 | 7.0 | 0.00 | 0.00 | 0.00 | 85 | 1016.1 |
| 20260506040051 | 58 | 71 | 2.0 | 4.0 | 0.00 | 0.00 | 0.00 | 85 | 1016.0 |
| 20260506035539 | 58 | 103 | 2.0 | 4.0 | 0.00 | 0.00 | 0.00 | 84 | 1015.9 |
| 20260506035039 | 58 | 113 | 1.0 | 5.0 | 0.00 | 0.00 | 0.00 | 84 | 1015.8 |
| 20260506034548 | 58 | 0 | 1.0 | 5.0 | 0.00 | 0.00 | 0.00 | 84 | 1015.7 |
| 20260506034043 | 58 | 169 | 1.0 | 4.0 | 0.00 | 0.00 | 0.00 | 83 | 1015.5 |
| 20260506033539 | 58 | 169 | 1.0 | 5.0 | 0.00 | 0.00 | 0.00 | 83 | 1015.6 |
| 20260506033048 | 58 | 172 | 1.0 | 5.0 | 0.00 | 0.00 | 0.00 | 83 | 1015.5 |
| 20260506032541 | 59 | 141 | 0.0 | 5.0 | 0.00 | 0.00 | 0.00 | 82 | 1015.4 |
| 20260506032041 | 59 | 175 | 2.0 | 6.0 | 0.00 | 0.00 | 0.00 | 81 | 1015.4 |
| 20260506031551 | 59 | 159 | 1.0 | 6.0 | 0.00 | 0.00 | 0.00 | 81 | 1015.2 |
| 20260506031040 | 59 | 139 | 2.0 | 6.0 | 0.00 | 0.00 | 0.00 | 80 | 1015.2 |
| 20260506030542 | 59 | 164 | 2.0 | 6.0 | 0.00 | 0.00 | 0.00 | 80 | 1015.1 |
| 20260506030049 | 60 | 170 | 1.0 | 6.0 | 0.00 | 0.00 | 0.00 | 79 | 1015.0 |
| 20260506025539 | 60 | 167 | 4.0 | 6.0 | 0.00 | 0.00 | 0.00 | 78 | 1015.0 |